QPF
0.01 0.01 0.01 0.01 0.01 0.01 0.01 0.01 0.03 0.05 0.05 0.06 0.06 0.06 0.06 0.06 0.05 0.03 0.03 0.03 0.02 0.01 0.01 0.02 0.02 0.02 0.02 0.01 0.01 0.01 0.01 0.01 0.01 0.02 0.04 0.04 0.04 0.04 0.05 0.06 0.07 0.07 0.07 0.05
0.01 0.01 0.00 0.01 0.01 0.01 0.02 0.02 0.02 0.04 0.05 0.04 0.06 0.07 0.07 0.08 0.06 0.03 0.03 0.05 0.04 0.02 0.01 0.02 0.02 0.02 0.02 0.01 0.01 0.01 0.01 0.01 0.02 0.03 0.03 0.03 0.02 0.03 0.04 0.05 0.06 0.06 0.06 0.05
0.03 0.02 0.02 0.03 0.02 0.03 0.03 0.02 0.02 0.04 0.04 0.02 0.03 0.04 0.06 0.06 0.05 0.03 0.03 0.04 0.05 0.05 0.03 0.02 0.01 0.01 0.01 0.01 0.01 0.01 0.01 0.01 0.01 0.02 0.03 0.02 0.02 0.02 0.03 0.04 0.04 0.05 0.05 0.05
0.02 0.04 0.06 0.04 0.03 0.02 0.04 0.03 0.03 0.03 0.03 0.02 0.03 0.04 0.05 0.05 0.03 0.03 0.02 0.03 0.04 0.05 0.05 0.03 0.02 0.01 0.01 0.01 0.01 0.01 0.01 0.01 0.01 0.01 0.02 0.02 0.02 0.02 0.02 0.03 0.03 0.03 0.05 0.05
0.04 0.05 0.06 0.04 0.02 0.03 0.05 0.05 0.03 0.03 0.03 0.02 0.02 0.03 0.05 0.04 0.03 0.02 0.02 0.02 0.03 0.04 0.04 0.04 0.03 0.01 0.01 0.01 0.01 0.01 0.01 0.01 0.02 0.02 0.01 0.02 0.01 0.02 0.02 0.02 0.02 0.02 0.04 0.04
0.05 0.07 0.07 0.06 0.02 0.01 0.03 0.06 0.05 0.04 0.04 0.02 0.02 0.03 0.06 0.04 0.03 0.02 0.02 0.02 0.02 0.03 0.04 0.06 0.05 0.03 0.02 0.01 0.01 0.02 0.03 0.03 0.02 0.02 0.01 0.01 0.01 0.01 0.02 0.02 0.02 0.02 0.03 0.03
0.05 0.07 0.06 0.03 0.02 0.02 0.05 0.08 0.06 0.07 0.07 0.05 0.04 0.04 0.04 0.03 0.04 0.03 0.02 0.03 0.02 0.02 0.03 0.05 0.07 0.06 0.04 0.03 0.02 0.02 0.02 0.02 0.02 0.01 0.01 0.02 0.02 0.02 0.03 0.02 0.03 0.03 0.03 0.03
0.05 0.07 0.08 0.03 0.02 0.04 0.05 0.04 0.05 0.07 0.08 0.06 0.04 0.03 0.03 0.03 0.04 0.04 0.04 0.03 0.02 0.02 0.02 0.04 0.05 0.07 0.06 0.03 0.02 0.02 0.02 0.02 0.02 0.01 0.01 0.02 0.02 0.03 0.02 0.03 0.03 0.04 0.05 0.04
0.06 0.08 0.07 0.05 0.04 0.03 0.03 0.05 0.05 0.04 0.04 0.04 0.04 0.03 0.02 0.03 0.03 0.04 0.03 0.02 0.02 0.01 0.02 0.03 0.04 0.05 0.07 0.05 0.03 0.01 0.01 0.01 0.02 0.01 0.02 0.02 0.02 0.03 0.03 0.03 0.03 0.03 0.03 0.04
0.06 0.07 0.06 0.05 0.03 0.03 0.03 0.06 0.05 0.03 0.02 0.02 0.03 0.04 0.04 0.03 0.03 0.03 0.02 0.02 0.02 0.01 0.02 0.02 0.04 0.04 0.05 0.07 0.04 0.03 0.02 0.02 0.02 0.02 0.02 0.02 0.02 0.01 0.02 0.02 0.02 0.02 0.03 0.04
0.07 0.08 0.05 0.03 0.03 0.02 0.02 0.02 0.02 0.02 0.02 0.02 0.02 0.03 0.04 0.04 0.04 0.03 0.02 0.02 0.02 0.02 0.03 0.03 0.04 0.04 0.04 0.07 0.07 0.05 0.03 0.02 0.02 0.01 0.01 0.02 0.01 0.01 0.01 0.01 0.01 0.02 0.04 0.05
0.06 0.06 0.05 0.03 0.02 0.02 0.02 0.03 0.02 0.02 0.02 0.02 0.02 0.03 0.04 0.05 0.05 0.04 0.02 0.02 0.02 0.02 0.03 0.05 0.05 0.04 0.04 0.06 0.09 0.08 0.04 0.03 0.02 0.01 0.02 0.02 0.01 0.00 0.00 0.00 0.00 0.02 0.04 0.03
0.03 0.02 0.02 0.01 0.01 0.01 0.02 0.03 0.03 0.03 0.04 0.04 0.03 0.04 0.04 0.06 0.06 0.04 0.02 0.01 0.02 0.02 0.03 0.06 0.05 0.05 0.05 0.06 0.08 0.10 0.06 0.03 0.02 0.02 0.02 0.02 0.01 0.01 0.01 0.01 0.01 0.02 0.03 0.01
0.02 0.01 0.02 0.02 0.02 0.02 0.03 0.03 0.02 0.02 0.03 0.04 0.05 0.05 0.05 0.05 0.03 0.02 0.01 0.01 0.02 0.02 0.04 0.06 0.06 0.07 0.05 0.06 0.08 0.09 0.08 0.05 0.03 0.03 0.03 0.03 0.03 0.02 0.01 0.02 0.03 0.03 0.02 0.01
0.02 0.02 0.02 0.02 0.02 0.04 0.04 0.03 0.03 0.03 0.03 0.03 0.05 0.05 0.04 0.03 0.02 0.01 0.01 0.02 0.02 0.03 0.03 0.05 0.06 0.07 0.07 0.06 0.06 0.08 0.08 0.07 0.04 0.04 0.04 0.03 0.03 0.03 0.03 0.02 0.03 0.03 0.02 0.01
0.02 0.02 0.02 0.01 0.02 0.03 0.03 0.02 0.03 0.03 0.03 0.03 0.03 0.03 0.02 0.02 0.01 0.01 0.01 0.02 0.03 0.03 0.03 0.04 0.05 0.06 0.08 0.07 0.06 0.05 0.07 0.08 0.04 0.03 0.02 0.03 0.04 0.04 0.04 0.04 0.05 0.05 0.04 0.02
0.03 0.03 0.02 0.02 0.03 0.03 0.02 0.02 0.02 0.02 0.02 0.02 0.02 0.02 0.01 0.02 0.02 0.01 0.01 0.02 0.02 0.02 0.03 0.04 0.03 0.03 0.06 0.06 0.05 0.04 0.04 0.06 0.07 0.03 0.02 0.02 0.04 0.05 0.06 0.07 0.08 0.09 0.07 0.05
0.03 0.02 0.02 0.03 0.04 0.03 0.02 0.01 0.01 0.01 0.02 0.02 0.03 0.03 0.03 0.04 0.03 0.02 0.02 0.02 0.02 0.03 0.04 0.04 0.02 0.02 0.04 0.06 0.04 0.04 0.04 0.04 0.05 0.05 0.05 0.05 0.06 0.07 0.08 0.09 0.09 0.10 0.09 0.08
0.02 0.02 0.02 0.04 0.06 0.04 0.02 0.01 0.01 0.02 0.02 0.02 0.03 0.03 0.03 0.03 0.02 0.02 0.02 0.03 0.03 0.03 0.02 0.02 0.02 0.02 0.03 0.05 0.05 0.04 0.04 0.04 0.04 0.04 0.06 0.06 0.07 0.08 0.08 0.09 0.09 0.08 0.09 0.08
0.01 0.01 0.01 0.02 0.05 0.05 0.03 0.02 0.02 0.03 0.02 0.03 0.04 0.04 0.03 0.02 0.02 0.02 0.02 0.03 0.04 0.04 0.03 0.02 0.03 0.03 0.04 0.05 0.05 0.04 0.04 0.05 0.05 0.04 0.04 0.04 0.04 0.05 0.06 0.06 0.06 0.07 0.08 0.07
0.01 0.01 0.01 0.03 0.04 0.05 0.05 0.03 0.03 0.03 0.02 0.03 0.03 0.03 0.03 0.04 0.02 0.02 0.02 0.02 0.02 0.01 0.01 0.01 0.01 0.02 0.03 0.04 0.03 0.03 0.04 0.05 0.04 0.04 0.04 0.04 0.04 0.03 0.03 0.04 0.04 0.04 0.06 0.05
0.01 0.01 0.02 0.02 0.04 0.05 0.04 0.03 0.02 0.02 0.02 0.02 0.02 0.02 0.03 0.05 0.05 0.03 0.02 0.02 0.02 0.02 0.01 0.01 0.02 0.02 0.03 0.03 0.02 0.02 0.02 0.03 0.03 0.03 0.02 0.03 0.03 0.03 0.03 0.03 0.03 0.05 0.06 0.06
0.03 0.02 0.03 0.03 0.04 0.04 0.03 0.03 0.02 0.02 0.02 0.02 0.03 0.03 0.03 0.04 0.04 0.05 0.05 0.04 0.04 0.04 0.02 0.02 0.02 0.02 0.02 0.02 0.03 0.02 0.02 0.03 0.03 0.03 0.02 0.02 0.02 0.02 0.02 0.02 0.03 0.04 0.05 0.05
0.03 0.03 0.03 0.03 0.04 0.03 0.03 0.03 0.02 0.03 0.03 0.03 0.04 0.05 0.05 0.05 0.05 0.05 0.06 0.07 0.06 0.06 0.04 0.04 0.04 0.03 0.02 0.02 0.03 0.04 0.03 0.03 0.03 0.03 0.03 0.03 0.02 0.02 0.02 0.02 0.03 0.04 0.05 0.05
0.02 0.03 0.03 0.03 0.05 0.04 0.03 0.02 0.02 0.02 0.02 0.02 0.03 0.06 0.06 0.04 0.05 0.04 0.04 0.04 0.04 0.03 0.03 0.04 0.04 0.04 0.03 0.03 0.03 0.04 0.04 0.04 0.03 0.03 0.03 0.04 0.03 0.02 0.02 0.02 0.03 0.04 0.05 0.06
0.02 0.02 0.02 0.02 0.03 0.03 0.04 0.03 0.03 0.03 0.02 0.02 0.02 0.05 0.05 0.03 0.02 0.03 0.03 0.03 0.02 0.03 0.03 0.03 0.03 0.03 0.03 0.03 0.04 0.04 0.04 0.04 0.04 0.03 0.03 0.03 0.03 0.02 0.02 0.02 0.03 0.04 0.05 0.06
0.02 0.02 0.02 0.01 0.02 0.02 0.03 0.03 0.03 0.03 0.03 0.03 0.03 0.03 0.03 0.02 0.02 0.03 0.03 0.03 0.03 0.03 0.03 0.03 0.03 0.04 0.04 0.04 0.04 0.04 0.03 0.02 0.02 0.03 0.03 0.02 0.02 0.02 0.02 0.02 0.02 0.03 0.05 0.04
MSLP
1009.23 1008.87 1008.47 1008.10 1007.81 1007.63 1007.57 1007.61 1007.71 1007.82 1007.92 1007.95 1007.91 1007.80 1007.65 1007.48 1007.32 1007.23 1007.22 1007.31 1007.51 1007.80 1008.16 1008.57 1009.01 1009.46 1009.90 1010.34 1010.77 1011.20 1011.63 1012.07 1012.53 1013.00 1013.48 1013.96 1014.43 1014.88 1015.30 1015.69 1016.05 1016.37 1016.67 1016.96
1009.51 1009.11 1008.63 1008.16 1007.74 1007.45 1007.29 1007.27 1007.36 1007.52 1007.70 1007.86 1007.96 1007.99 1007.93 1007.82 1007.67 1007.53 1007.42 1007.38 1007.43 1007.58 1007.81 1008.13 1008.51 1008.94 1009.39 1009.87 1010.35 1010.85 1011.35 1011.85 1012.37 1012.90 1013.44 1013.97 1014.50 1015.00 1015.48 1015.91 1016.31 1016.66 1016.97 1017.26
1009.65 1009.23 1008.73 1008.20 1007.72 1007.36 1007.15 1007.10 1007.18 1007.38 1007.63 1007.88 1008.08 1008.21 1008.23 1008.16 1008.01 1007.82 1007.62 1007.46 1007.37 1007.37 1007.48 1007.69 1008.00 1008.38 1008.83 1009.33 1009.86 1010.40 1010.96 1011.53 1012.12 1012.71 1013.30 1013.90 1014.49 1015.05 1015.59 1016.08 1016.52 1016.90 1017.24 1017.54
1009.67 1009.27 1008.77 1008.24 1007.75 1007.37 1007.14 1007.07 1007.16 1007.38 1007.67 1007.98 1008.26 1008.45 1008.53 1008.49 1008.34 1008.11 1007.85 1007.59 1007.38 1007.25 1007.23 1007.33 1007.55 1007.88 1008.30 1008.79 1009.34 1009.92 1010.53 1011.16 1011.80 1012.45 1013.10 1013.75 1014.39 1015.01 1015.60 1016.14 1016.62 1017.05 1017.42 1017.73
1009.62 1009.24 1008.77 1008.26 1007.79 1007.42 1007.19 1007.12 1007.21 1007.44 1007.75 1008.10 1008.41 1008.65 1008.77 1008.76 1008.62 1008.38 1008.07 1007.74 1007.44 1007.21 1007.08 1007.08 1007.21 1007.46 1007.84 1008.31 1008.85 1009.46 1010.10 1010.77 1011.45 1012.15 1012.84 1013.54 1014.22 1014.87 1015.49 1016.06 1016.58 1017.04 1017.44 1017.78
1009.50 1009.14 1008.70 1008.23 1007.80 1007.44 1007.22 1007.15 1007.23 1007.44 1007.75 1008.10 1008.44 1008.70 1008.86 1008.88 1008.77 1008.54 1008.22 1007.85 1007.49 1007.19 1006.98 1006.88 1006.93 1007.11 1007.43 1007.87 1008.41 1009.02 1009.68 1010.38 1011.10 1011.83 1012.56 1013.27 1013.97 1014.64 1015.27 1015.86 1016.39 1016.87 1017.30 1017.67
1009.31 1008.96 1008.55 1008.12 1007.71 1007.37 1007.15 1007.06 1007.11 1007.29 1007.57 1007.89 1008.22 1008.49 1008.67 1008.73 1008.66 1008.46 1008.17 1007.81 1007.44 1007.09 1006.83 1006.68 1006.65 1006.78 1007.05 1007.46 1007.98 1008.59 1009.27 1010.00 1010.74 1011.50 1012.24 1012.97 1013.67 1014.33 1014.95 1015.53 1016.07 1016.55 1017.00 1017.40
1009.02 1008.68 1008.29 1007.89 1007.50 1007.17 1006.93 1006.80 1006.79 1006.91 1007.11 1007.38 1007.67 1007.93 1008.12 1008.21 1008.19 1008.05 1007.81 1007.50 1007.15 1006.82 1006.54 1006.35 1006.30 1006.38 1006.62 1007.00 1007.52 1008.14 1008.84 1009.59 1010.36 1011.14 1011.90 1012.63 1013.32 1013.97 1014.57 1015.13 1015.65 1016.14 1016.59 1017.02
1008.63 1008.29 1007.92 1007.54 1007.16 1006.82 1006.53 1006.34 1006.24 1006.25 1006.35 1006.52 1006.74 1006.96 1007.15 1007.27 1007.30 1007.23 1007.07 1006.84 1006.56 1006.27 1006.02 1005.84 1005.78 1005.85 1006.08 1006.45 1006.97 1007.61 1008.33 1009.12 1009.93 1010.74 1011.52 1012.26 1012.95 1013.58 1014.16 1014.69 1015.19 1015.67 1016.13 1016.59
1008.14 1007.82 1007.46 1007.09 1006.71 1006.33 1005.98 1005.69 1005.47 1005.34 1005.29 1005.34 1005.45 1005.60 1005.76 1005.90 1005.98 1006.00 1005.94 1005.81 1005.62 1005.42 1005.23 1005.10 1005.07 1005.16 1005.39 1005.78 1006.31 1006.97 1007.74 1008.56 1009.41 1010.26 1011.08 1011.84 1012.53 1013.16 1013.73 1014.25 1014.74 1015.21 1015.68 1016.15
1007.58 1007.27 1006.94 1006.58 1006.18 1005.75 1005.32 1004.90 1004.53 1004.22 1004.01 1003.89 1003.87 1003.92 1004.03 1004.17 1004.30 1004.40 1004.45 1004.45 1004.39 1004.30 1004.21 1004.15 1004.17 1004.30 1004.56 1004.97 1005.53 1006.22 1007.02 1007.89 1008.79 1009.69 1010.55 1011.35 1012.07 1012.72 1013.29 1013.82 1014.31 1014.78 1015.26 1015.75
1006.97 1006.70 1006.40 1006.04 1005.61 1005.13 1004.59 1004.03 1003.49 1003.00 1002.58 1002.28 1002.10 1002.05 1002.10 1002.22 1002.39 1002.58 1002.74 1002.87 1002.95 1003.00 1003.02 1003.07 1003.16 1003.34 1003.64 1004.08 1004.66 1005.37 1006.20 1007.10 1008.05 1009.00 1009.91 1010.76 1011.53 1012.21 1012.83 1013.38 1013.89 1014.38 1014.88 1015.38
1006.37 1006.14 1005.87 1005.51 1005.06 1004.50 1003.86 1003.15 1002.43 1001.74 1001.13 1000.64 1000.31 1000.13 1000.11 1000.22 1000.42 1000.68 1000.96 1001.23 1001.46 1001.65 1001.81 1001.96 1002.13 1002.37 1002.70 1003.16 1003.75 1004.47 1005.31 1006.23 1007.20 1008.19 1009.15 1010.05 1010.88 1011.62 1012.29 1012.89 1013.44 1013.97 1014.49 1015.01
1005.80 1005.62 1005.37 1005.02 1004.53 1003.91 1003.16 1002.32 1001.43 1000.56 999.76 999.10 998.61 998.32 998.23 998.31 998.55 998.88 999.27 999.67 1000.05 1000.38 1000.67 1000.92 1001.18 1001.47 1001.83 1002.29 1002.87 1003.58 1004.40 1005.31 1006.29 1007.29 1008.28 1009.22 1010.10 1010.91 1011.64 1012.30 1012.91 1013.49 1014.05 1014.60
1005.30 1005.16 1004.94 1004.58 1004.06 1003.37 1002.53 1001.57 1000.54 999.52 998.56 997.75 997.13 996.74 996.59 996.65 996.91 997.31 997.80 998.32 998.82 999.29 999.69 1000.05 1000.39 1000.72 1001.10 1001.55 1002.10 1002.76 1003.54 1004.41 1005.35 1006.34 1007.33 1008.29 1009.21 1010.06 1010.85 1011.58 1012.25 1012.89 1013.49 1014.07
1004.88 1004.77 1004.56 1004.20 1003.65 1002.92 1002.01 1000.96 999.82 998.68 997.61 996.68 995.96 995.49 995.29 995.34 995.61 996.06 996.62 997.23 997.85 998.42 998.93 999.38 999.78 1000.15 1000.53 1000.96 1001.46 1002.07 1002.77 1003.57 1004.45 1005.39 1006.35 1007.30 1008.23 1009.11 1009.93 1010.71 1011.43 1012.11 1012.76 1013.37
1004.53 1004.44 1004.24 1003.88 1003.32 1002.56 1001.61 1000.50 999.31 998.10 996.96 995.96 995.17 994.64 994.39 994.42 994.69 995.16 995.76 996.44 997.13 997.78 998.37 998.89 999.34 999.74 1000.12 1000.53 1000.99 1001.52 1002.14 1002.85 1003.65 1004.50 1005.40 1006.30 1007.20 1008.08 1008.91 1009.71 1010.46 1011.18 1011.85 1012.49
1004.26 1004.18 1003.98 1003.62 1003.07 1002.30 1001.35 1000.24 999.04 997.81 996.64 995.60 994.78 994.21 993.91 993.90 994.14 994.60 995.20 995.90 996.62 997.32 997.97 998.53 999.02 999.45 999.84 1000.23 1000.65 1001.13 1001.67 1002.29 1002.99 1003.74 1004.55 1005.38 1006.22 1007.04 1007.85 1008.63 1009.38 1010.10 1010.79 1011.44
1004.04 1003.97 1003.78 1003.44 1002.91 1002.17 1001.25 1000.18 999.02 997.82 996.66 995.63 994.78 994.17 993.83 993.76 993.94 994.34 994.89 995.56 996.27 996.97 997.64 998.23 998.75 999.22 999.63 1000.03 1000.43 1000.86 1001.35 1001.89 1002.50 1003.15 1003.86 1004.59 1005.34 1006.08 1006.83 1007.56 1008.27 1008.96 1009.64 1010.28
1003.87 1003.80 1003.63 1003.32 1002.83 1002.16 1001.31 1000.32 999.23 998.10 996.99 995.98 995.13 994.49 994.08 993.93 994.01 994.31 994.77 995.35 996.00 996.67 997.32 997.92 998.47 998.97 999.42 999.84 1000.26 1000.69 1001.15 1001.64 1002.17 1002.74 1003.35 1003.97 1004.61 1005.26 1005.91 1006.56 1007.20 1007.84 1008.47 1009.07
1003.71 1003.65 1003.50 1003.23 1002.82 1002.23 1001.49 1000.61 999.63 998.59 997.56 996.59 995.75 995.07 994.60 994.34 994.29 994.45 994.77 995.23 995.78 996.37 996.98 997.57 998.14 998.67 999.17 999.64 1000.10 1000.55 1001.01 1001.49 1001.97 1002.48 1002.99 1003.52 1004.05 1004.59 1005.14 1005.69 1006.24 1006.80 1007.36 1007.91
1003.54 1003.49 1003.38 1003.17 1002.84 1002.36 1001.74 1001.00 1000.14 999.23 998.29 997.38 996.55 995.84 995.29 994.92 994.73 994.73 994.88 995.18 995.59 996.08 996.62 997.18 997.75 998.31 998.86 999.39 999.91 1000.41 1000.89 1001.37 1001.84 1002.29 1002.74 1003.19 1003.63 1004.06 1004.50 1004.95 1005.41 1005.88 1006.36 1006.85
1003.34 1003.31 1003.24 1003.09 1002.85 1002.49 1002.00 1001.40 1000.70 999.91 999.08 998.24 997.44 996.71 996.10 995.62 995.29 995.12 995.10 995.23 995.49 995.85 996.30 996.80 997.36 997.93 998.51 999.09 999.66 1000.21 1000.73 1001.23 1001.69 1002.12 1002.52 1002.90 1003.26 1003.61 1003.96 1004.31 1004.68 1005.07 1005.48 1005.91
1003.11 1003.10 1003.06 1002.98 1002.82 1002.57 1002.22 1001.76 1001.20 1000.56 999.84 999.10 998.34 997.62 996.96 996.40 995.95 995.63 995.45 995.42 995.52 995.75 996.09 996.52 997.02 997.58 998.17 998.77 999.37 999.95 1000.50 1001.00 1001.46 1001.87 1002.24 1002.56 1002.86 1003.15 1003.42 1003.71 1004.01 1004.34 1004.70 1005.07
1002.86 1002.85 1002.84 1002.81 1002.72 1002.57 1002.34 1002.02 1001.60 1001.10 1000.52 999.88 999.20 998.51 997.85 997.24 996.71 996.28 995.98 995.80 995.76 995.86 996.08 996.41 996.84 997.35 997.90 998.49 999.07 999.64 1000.18 1000.67 1001.11 1001.49 1001.82 1002.10 1002.36 1002.59 1002.82 1003.06 1003.33 1003.62 1003.94 1004.28
1002.61 1002.60 1002.60 1002.59 1002.56 1002.49 1002.36 1002.15 1001.87 1001.51 1001.06 1000.54 999.97 999.36 998.74 998.13 997.58 997.09 996.70 996.42 996.26 996.24 996.34 996.57 996.89 997.30 997.78 998.29 998.81 999.32 999.81 1000.24 1000.63 1000.96 1001.24 1001.48 1001.69 1001.89 1002.10 1002.31 1002.56 1002.84 1003.15 1003.49
1002.42 1002.39 1002.38 1002.37 1002.36 1002.34 1002.28 1002.18 1002.01 1001.78 1001.47 1001.09 1000.64 1000.14 999.60 999.06 998.52 998.03 997.60 997.26 997.03 996.91 996.90 997.00 997.21 997.49 997.85 998.24 998.65 999.05 999.43 999.77 1000.07 1000.32 1000.53 1000.72 1000.89 1001.05 1001.24 1001.45 1001.69 1001.97 1002.30 1002.65
Thickness
5723 5733 5736 5732 5732 5734 5732 5728 5718 5718 5717 5716 5720 5720 5721 5721 5719 5721 5719 5717 5714 5711 5708 5707 5705 5703 5701 5698 5696 5695 5693 5691 5689 5687 5687 5685 5684 5683 5683 5682 5682 5680 5678 5676
5710 5724 5727 5722 5723 5725 5725 5724 5722 5715 5709 5718 5718 5716 5713 5711 5708 5709 5710 5710 5707 5705 5703 5700 5698 5696 5694 5692 5690 5688 5686 5685 5684 5683 5682 5680 5679 5679 5678 5677 5676 5675 5673 5671
5691 5710 5711 5697 5706 5709 5709 5710 5709 5700 5702 5709 5705 5702 5699 5699 5699 5701 5704 5702 5699 5697 5696 5693 5692 5690 5688 5687 5685 5683 5681 5679 5679 5677 5676 5676 5675 5673 5672 5671 5670 5668 5667 5665
5684 5688 5671 5687 5706 5705 5698 5696 5696 5695 5696 5697 5694 5695 5696 5696 5694 5695 5696 5695 5692 5691 5689 5688 5686 5685 5683 5682 5680 5677 5675 5674 5673 5672 5671 5670 5668 5667 5666 5665 5664 5662 5661 5661
5674 5673 5675 5682 5692 5692 5687 5681 5685 5684 5685 5688 5691 5688 5683 5686 5687 5687 5688 5687 5685 5685 5683 5681 5680 5678 5676 5674 5672 5671 5670 5669 5668 5667 5665 5663 5661 5661 5660 5659 5657 5657 5656 5655
5664 5657 5654 5663 5681 5691 5685 5666 5673 5676 5674 5675 5678 5669 5668 5676 5680 5680 5679 5679 5678 5678 5677 5674 5673 5673 5669 5667 5666 5664 5664 5664 5663 5661 5659 5657 5655 5654 5653 5652 5651 5651 5650 5650
5655 5650 5649 5659 5673 5678 5655 5648 5661 5663 5664 5664 5660 5659 5663 5668 5670 5670 5670 5671 5670 5670 5668 5667 5667 5666 5662 5661 5659 5659 5659 5658 5656 5654 5652 5651 5649 5648 5647 5646 5646 5645 5645 5645
5645 5638 5633 5653 5657 5648 5643 5652 5653 5653 5654 5653 5654 5656 5657 5659 5659 5661 5661 5662 5662 5660 5660 5660 5660 5658 5655 5653 5654 5654 5652 5650 5648 5647 5646 5645 5643 5641 5641 5640 5639 5638 5638 5638
5633 5629 5635 5642 5641 5642 5644 5643 5643 5643 5647 5648 5647 5648 5649 5650 5651 5652 5652 5654 5655 5654 5653 5653 5653 5652 5648 5647 5648 5648 5646 5643 5641 5640 5640 5639 5637 5635 5634 5634 5633 5633 5632 5632
5626 5628 5631 5633 5634 5635 5636 5635 5638 5639 5641 5642 5641 5640 5640 5641 5642 5644 5646 5646 5647 5647 5646 5645 5646 5645 5643 5643 5642 5641 5638 5636 5635 5634 5633 5633 5632 5631 5630 5629 5628 5628 5627 5627
5617 5620 5624 5625 5627 5627 5628 5631 5632 5634 5635 5635 5633 5632 5631 5632 5633 5635 5637 5639 5639 5639 5639 5638 5638 5638 5638 5637 5635 5634 5632 5630 5629 5629 5628 5626 5626 5626 5626 5625 5625 5623 5624 5624
5607 5613 5614 5616 5621 5624 5623 5624 5626 5626 5627 5628 5627 5625 5625 5625 5625 5626 5627 5630 5630 5631 5631 5631 5631 5631 5631 5631 5629 5626 5625 5624 5624 5624 5623 5623 5622 5621 5620 5620 5620 5619 5619 5619
5610 5614 5615 5616 5617 5618 5617 5618 5619 5619 5619 5619 5619 5618 5617 5616 5617 5618 5619 5621 5622 5622 5623 5624 5624 5624 5625 5625 5623 5620 5620 5619 5620 5620 5619 5619 5619 5618 5616 5615 5614 5614 5614 5613
5610 5610 5608 5609 5609 5611 5611 5612 5613 5613 5613 5612 5611 5610 5609 5608 5609 5609 5610 5612 5614 5615 5615 5616 5616 5617 5618 5618 5617 5615 5615 5615 5615 5615 5615 5616 5616 5615 5614 5613 5611 5610 5609 5607
5605 5605 5604 5605 5605 5605 5605 5605 5604 5604 5605 5604 5603 5601 5599 5599 5599 5601 5603 5604 5606 5606 5607 5608 5609 5609 5611 5611 5610 5610 5610 5610 5610 5611 5611 5611 5611 5611 5611 5610 5609 5609 5608 5605
5599 5600 5599 5597 5597 5598 5599 5598 5596 5596 5597 5597 5596 5595 5594 5593 5593 5594 5596 5596 5597 5598 5599 5601 5602 5603 5604 5605 5604 5604 5604 5603 5604 5605 5606 5606 5607 5607 5606 5605 5605 5605 5605 5603
5591 5589 5589 5589 5590 5591 5591 5592 5591 5591 5591 5590 5590 5589 5589 5588 5588 5588 5588 5590 5590 5592 5594 5595 5596 5598 5598 5599 5599 5600 5600 5600 5598 5600 5600 5601 5602 5602 5602 5602 5601 5601 5601 5600
5590 5588 5587 5585 5585 5585 5586 5587 5586 5585 5585 5585 5585 5583 5581 5581 5581 5582 5583 5584 5585 5587 5588 5589 5591 5592 5593 5594 5594 5595 5596 5596 5595 5595 5595 5596 5597 5598 5598 5598 5598 5598 5597 5597
5587 5586 5584 5583 5581 5580 5581 5581 5581 5581 5581 5581 5579 5577 5577 5576 5576 5577 5577 5577 5578 5579 5581 5583 5583 5586 5588 5588 5587 5590 5591 5591 5590 5591 5591 5590 5592 5593 5593 5594 5595 5594 5594 5594
5582 5582 5581 5579 5577 5576 5576 5576 5576 5576 5576 5576 5575 5573 5572 5571 5571 5572 5572 5572 5573 5574 5576 5576 5577 5580 5581 5581 5580 5584 5585 5586 5585 5585 5586 5587 5587 5589 5589 5590 5590 5591 5591 5591
5576 5576 5575 5574 5572 5572 5572 5572 5571 5570 5571 5570 5569 5567 5566 5566 5567 5567 5567 5567 5569 5569 5570 5570 5572 5573 5574 5573 5574 5579 5580 5581 5581 5581 5581 5582 5583 5584 5585 5586 5586 5587 5588 5588
5570 5570 5569 5569 5567 5567 5568 5568 5567 5567 5566 5566 5565 5564 5563 5561 5561 5562 5562 5562 5564 5561 5564 5566 5567 5566 5567 5567 5571 5574 5576 5576 5577 5577 5578 5578 5579 5579 5580 5581 5582 5583 5584 5585
5565 5565 5564 5564 5563 5563 5564 5565 5565 5564 5562 5562 5561 5560 5559 5558 5558 5558 5558 5560 5560 5557 5559 5562 5560 5559 5558 5562 5567 5569 5571 5571 5572 5573 5573 5573 5574 5575 5576 5577 5578 5579 5580 5580
5560 5559 5559 5560 5560 5560 5560 5560 5561 5560 5559 5559 5558 5557 5556 5556 5556 5557 5556 5555 5554 5554 5556 5555 5554 5554 5554 5559 5563 5565 5566 5566 5568 5568 5569 5569 5570 5571 5571 5572 5573 5574 5575 5575
5555 5555 5555 5556 5556 5556 5556 5556 5556 5556 5555 5554 5553 5553 5552 5552 5550 5551 5551 5552 5550 5550 5552 5552 5550 5550 5553 5556 5559 5559 5560 5561 5561 5561 5562 5562 5564 5565 5565 5566 5567 5567 5568 5568
5552 5552 5552 5552 5552 5552 5553 5553 5552 5550 5549 5548 5547 5547 5546 5546 5546 5547 5546 5547 5548 5547 5549 5550 5550 5549 5551 5553 5554 5554 5554 5555 5555 5556 5557 5557 5558 5558 5559 5560 5560 5561 5561 5561
5550 5550 5549 5550 5550 5550 5549 5548 5547 5545 5544 5542 5541 5541 5541 5541 5541 5541 5542 5542 5543 5544 5545 5546 5547 5548 5549 5549 5550 5549 5550 5551 5551 5552 5552 5552 5552 5552 5552 5552 5553 5554 5553 5553